sat.trackr.live / text

‹ back to catalog

YAOGAN-35 02A

NORAD 52907 · 2022-068A

PAYLOAD ACTIVE UNKNOWN

§ Identity

Operator
Country
PRC
Launch date
2022-06-23
Launch site
XICLF
Launch vehicle
Mass (kg)
RCS (m²)

External: N2YO · Heavens-Above · Gunter

§ Orbital elements

Epoch: 2026-05-25T01:46:33.738240Z

Period
94.50 min
Inclination
34.9913°
Eccentricity
0.0010944
Mean motion
15.23827404 rev/d
Perigee alt
486.8 km
Apogee alt
501.8 km
Semi-major
6,872.4 km
B*
2.9005e-4
RAAN
284.1268°
Arg perigee
229.7101°
Mean anomaly
130.2658°
Rev number
21,836

§ Raw data

YAOGAN-35 02A1 52907U 22068A   26145.07400160  .00007143  00000+0  29005-3 0  99902 52907  34.9913 284.1268 0010944 229.7101 130.2658 15.23827404218366

JSON: /api/v1/satellites/52907 · /tle

For live sub-satellite position, see the globe view (requires WebGL).

§ Visibility from observer

Set your observer location to see the next 7 days of passes ≥ 10°. The values pass through the URL so the page stays shareable.

No JS? Fill the form by hand. The geolocation button needs JavaScript.